COSMOS 1997

导读

COSMOS 1997是独立国家联合体(CIS)于1989年2月10日发射的军用卫星,属于苏联/俄罗斯历史悠久的“宇宙”系列卫星家族。该系列是世界上规模最大的人造卫星群体,多数承担军事任务。作为冷战末期入轨的太空资产,它延续了系列保密传统,具体任务与性能未公开,推测承担侦察或技术试验任务,目前已完成使命再入大气层销毁,见证了苏联航天最后阶段的技术发展。

Basic Information
目录编号:
19788
目录名称:
COSMOS 1997
国际标识:
1989-009D
轨道中心:
EARTH
卫星名称:
COSMOS 1997
卫星全名:
--
卫星状态:
在轨 (已飞行13738 天)
发射日期:
1989-02-10 UTC
国别 :
俄罗斯(独联体) (CIS)
星等 :
--
This satellite is enrolled in the Space Conjunction Data Service (SCDS) and the current flight risk assessment level is: No High Risk
Orbit Information
数据来源 国际轨道数据 AOE轨道数据
星历时间 2026-09-22T11:31:10+0800
9小时前
查看轨道信息
2026-09-21T22:00:00+0800
23小时前
查看轨道信息
半长轴 7785.884km 7785.884km
偏心率 0.0010583 0.0010342
轨道倾角 82.618° 82.618°
近地点辐角 120.132° 120.659°
升交点赤经 299.059° 299.416°
平近点角 296.195° 254.261°
近地点 1399.507km 1399.694km
远地点 1415.987km 1415.8km
周期 113.952分钟 113.952分钟
每日圈数 12.636911 12.63691
Detailed Information
使用方式:
暂无
2D Orbit Map
3D Orbit Map
Orbit Altitude Analysis Chart
Orbit Inclination Analysis Chart
Orbit Comprehensive Analysis Chart
View Comprehensive Chart
Conjunction Data List
Event ID Objects TCA Miss Dist (km) Collision Risk Probability Collision Risk Index (CRI) Action
CDM_260924-210901-978808-756921
2026-09-24T
21:09:34+0000
2.480 km
极远距离
1.733015E-6 低风险 0.4
Miss Distance Evolution Trend with All Objects Subscribe to Flight Safety Assessment
Collision Probability Evolution Trend with All Objects Subscribe to Flight Safety Assessment